• In Hungary
  • List of Countries
  • For 7 days
  • Water Temperature
  • Satellite Maps
  • Weather Map
  • News
  • Weather Widgets
  • user-avatar
    Login

    Hourly Weather Gisborne

    Today, 18 October, Thursday

    Time Temperature Precipitation Wind Pressure Humidity
    00:00 +9°C° 0 mm 2 mps 761 mmHg 82%
    01:00 +9°C° 0 mm 2 mps 761 mmHg 84%
    02:00 +9°C° 0 mm 2 mps 761 mmHg 85%
    03:00 +9°C° 0 mm 2 mps 761 mmHg 87%
    04:00 +9°C° 0 mm 2 mps 761 mmHg 86%
    05:00 +9°C° 0 mm 2 mps 761 mmHg 85%
    06:00 +10°C° 0 mm 2 mps 761 mmHg 81%
    07:00 +15°C° 0 mm 1 mps 761 mmHg 68%
    08:00 +19°C° 0 mm 1 mps 761 mmHg 55%
    09:00 +21°C° 0 mm 0 mps 761 mmHg 42%
    10:00 +23°C° 0 mm 2 mps 762 mmHg 41%
    11:00 +22°C° 0 mm 3 mps 762 mmHg 40%
    12:00 +22°C° 0 mm 6 mps 762 mmHg 42%
    13:00 +21°C° 0 mm 6 mps 763 mmHg 47%
    14:00 +20°C° 0 mm 6 mps 763 mmHg 52%
    15:00 +19°C° 0 mm 6 mps 763 mmHg 57%
    16:00 +16°C° 0 mm 6 mps 764 mmHg 62%
    17:00 +15°C° 0 mm 6 mps 765 mmHg 67%
    18:00 +14°C° 0 mm 5 mps 765 mmHg 72%
    19:00 +13°C° 0 mm 5 mps 766 mmHg 79%
    20:00 +10°C° 0 mm 5 mps 767 mmHg 85%
    21:00 +10°C° 0 mm 4 mps 768 mmHg 91%
    22:00 +8°C° 0 mm 4 mps 768 mmHg 93%
    23:00 +8°C° 0 mm 4 mps 769 mmHg 94%

    Tomorrow, 19 October, Friday

    Time Temperature Precipitation Wind Pressure Humidity
    00:00 +7°C° 0 mm 4 mps 769 mmHg 95%
    01:00 +8°C° 0 mm 3 mps 769 mmHg 95%
    02:00 +7°C° 0 mm 3 mps 769 mmHg 96%
    03:00 +5°C° 0 mm 3 mps 769 mmHg 96%
    04:00 +5°C° 0 mm 3 mps 769 mmHg 93%
    05:00 +5°C° 0 mm 3 mps 769 mmHg 89%
    06:00 +5°C° 0 mm 3 mps 770 mmHg 86%
    07:00 +10°C° 0 mm 2 mps 769 mmHg 67%
    08:00 +15°C° 0 mm 2 mps 769 mmHg 48%
    09:00 +20°C° 0 mm 1 mps 769 mmHg 28%
    10:00 +22°C° 0 mm 1 mps 769 mmHg 25%
    11:00 +24°C° 0 mm 1 mps 769 mmHg 22%
    12:00 +25°C° 0 mm 1 mps 769 mmHg 19%
    13:00 +25°C° 0 mm 2 mps 768 mmHg 21%
    14:00 +25°C° 0 mm 3 mps 768 mmHg 24%
    15:00 +24°C° 0 mm 3 mps 767 mmHg 26%
    16:00 +22°C° 0 mm 3 mps 767 mmHg 34%
    17:00 +20°C° 0 mm 4 mps 767 mmHg 43%
    18:00 +18°C° 0 mm 4 mps 767 mmHg 51%
    19:00 +15°C° 0 mm 4 mps 767 mmHg 55%
    20:00 +14°C° 0 mm 4 mps 768 mmHg 59%
    21:00 +13°C° 0 mm 4 mps 768 mmHg 63%
    22:00 +13°C° 0 mm 4 mps 768 mmHg 66%
    23:00 +13°C° 0 mm 4 mps 768 mmHg 68%

    Day after tomorrow, 20 October, Saturday

    Time Temperature Precipitation Wind Pressure Humidity
    00:00 +13°C° 0 mm 3 mps 768 mmHg 71%
    01:00 +12°C° 0 mm 3 mps 767 mmHg 73%
    02:00 +12°C° 0 mm 3 mps 767 mmHg 75%
    03:00 +11°C° 0 mm 3 mps 766 mmHg 76%
    04:00 +11°C° 0 mm 3 mps 766 mmHg 75%
    05:00 +12°C° 0 mm 2 mps 767 mmHg 74%
    06:00 +13°C° 0 mm 2 mps 767 mmHg 72%
    07:00 +15°C° 0 mm 2 mps 767 mmHg 62%
    08:00 +18°C° 0 mm 2 mps 767 mmHg 52%
    09:00 +21°C° 0 mm 2 mps 767 mmHg 41%
    10:00 +24°C° 0 mm 2 mps 766 mmHg 37%
    11:00 +26°C° 0 mm 2 mps 766 mmHg 33%
    12:00 +28°C° 0 mm 3 mps 766 mmHg 29%
    13:00 +28°C° 0 mm 3 mps 765 mmHg 30%
    14:00 +27°C° 0 mm 3 mps 765 mmHg 31%
    15:00 +27°C° 0 mm 4 mps 764 mmHg 32%
    16:00 +25°C° 0 mm 3 mps 764 mmHg 42%
    17:00 +22°C° 0 mm 3 mps 764 mmHg 52%
    18:00 +20°C° 0 mm 3 mps 764 mmHg 61%
    19:00 +18°C° 0 mm 2 mps 765 mmHg 67%
    20:00 +17°C° 0 mm 2 mps 765 mmHg 73%
    21:00 +16°C° 0 mm 2 mps 766 mmHg 80%
    22:00 +15°C° 0 mm 2 mps 766 mmHg 80%
    23:00 +15°C° 0 mm 2 mps 765 mmHg 80%

    21 October, Sunday

    Time Temperature Precipitation Wind Pressure Humidity
    00:00 +15°C° 0 mm 2 mps 765 mmHg 80%
    01:00 +14°C° 0 mm 2 mps 765 mmHg 80%
    02:00 +14°C° 0 mm 2 mps 765 mmHg 79%
    03:00 +13°C° 0 mm 2 mps 765 mmHg 79%
    04:00 +13°C° 0 mm 2 mps 765 mmHg 80%
    05:00 +13°C° 0 mm 2 mps 765 mmHg 81%
    06:00 +12°C° 0 mm 2 mps 765 mmHg 83%
    07:00 +16°C° 0 mm 2 mps 765 mmHg 71%
    08:00 +19°C° 0 mm 2 mps 765 mmHg 58%
    09:00 +23°C° 0 mm 2 mps 765 mmHg 46%
    10:00 +24°C° 0 mm 2 mps 765 mmHg 44%
    11:00 +25°C° 0 mm 2 mps 765 mmHg 41%
    12:00 +26°C° 0 mm 3 mps 765 mmHg 38%
    13:00 +25°C° 0 mm 3 mps 765 mmHg 41%
    14:00 +24°C° 0 mm 3 mps 764 mmHg 44%
    15:00 +24°C° 0 mm 3 mps 764 mmHg 47%
    16:00 +21°C° 0 mm 2 mps 764 mmHg 54%
    17:00 +19°C° 0 mm 2 mps 765 mmHg 62%
    18:00 +19°C° 0 mm 1 mps 765 mmHg 69%
    19:00 +16°C° 0 mm 1 mps 765 mmHg 75%
    20:00 +14°C° 0 mm 1 mps 766 mmHg 82%
    21:00 +13°C° 0 mm 1 mps 766 mmHg 88%
    22:00 +13°C° 0 mm 1 mps 767 mmHg 87%
    23:00 +12°C° 0 mm 1 mps 767 mmHg 87%

    22 October, Monday

    Time Temperature Precipitation Wind Pressure Humidity
    00:00 +12°C° 0 mm 1 mps 767 mmHg 87%
    01:00 +12°C° 0 mm 1 mps 766 mmHg 87%
    02:00 +11°C° 0 mm 1 mps 766 mmHg 86%
    03:00 +10°C° 0 mm 2 mps 766 mmHg 85%
    04:00 +12°C° 0 mm 2 mps 767 mmHg 83%
    05:00 +12°C° 0 mm 2 mps 767 mmHg 81%
    06:00 +12°C° 0 mm 2 mps 767 mmHg 79%
    07:00 +15°C° 0 mm 2 mps 767 mmHg 69%
    08:00 +18°C° 0 mm 2 mps 768 mmHg 60%
    09:00 +21°C° 0 mm 2 mps 768 mmHg 50%
    10:00 +23°C° 0 mm 2 mps 767 mmHg 48%
    11:00 +24°C° 0 mm 2 mps 767 mmHg 46%
    12:00 +24°C° 0 mm 3 mps 767 mmHg 44%
    13:00 +24°C° 0 mm 3 mps 767 mmHg 46%
    14:00 +24°C° 0 mm 3 mps 767 mmHg 48%
    15:00 +22°C° 0 mm 3 mps 767 mmHg 51%
    16:00 +21°C° 0 mm 3 mps 767 mmHg 58%
    17:00 +19°C° 0 mm 2 mps 767 mmHg 65%
    18:00 +18°C° 0 mm 2 mps 768 mmHg 72%
    19:00 +16°C° 0 mm 1 mps 768 mmHg 79%
    20:00 +15°C° 0 mm 1 mps 768 mmHg 87%
    21:00 +13°C° 0 mm 1 mps 769 mmHg 94%
    22:00 +13°C° 0 mm 1 mps 769 mmHg 94%
    23:00 +12°C° 0 mm 1 mps 769 mmHg 94%

    23 October, Tuesday

    Time Temperature Precipitation Wind Pressure Humidity
    00:00 +12°C° 0 mm 1 mps 769 mmHg 94%
    01:00 +12°C° 0 mm 1 mps 769 mmHg 93%
    02:00 +12°C° 0 mm 1 mps 769 mmHg 92%
    03:00 +12°C° 0 mm 1 mps 768 mmHg 92%
    04:00 +12°C° 0 mm 1 mps 769 mmHg 89%
    05:00 +12°C° 0 mm 1 mps 769 mmHg 86%
    06:00 +12°C° 0 mm 1 mps 769 mmHg 84%
    07:00 +15°C° 0 mm 1 mps 769 mmHg 73%
    08:00 +19°C° 0 mm 1 mps 769 mmHg 63%
    09:00 +22°C° 0 mm 1 mps 769 mmHg 53%
    10:00 +23°C° 0 mm 2 mps 769 mmHg 51%
    11:00 +24°C° 0 mm 2 mps 768 mmHg 50%
    12:00 +25°C° 0 mm 3 mps 768 mmHg 48%
    13:00 +24°C° 0 mm 3 mps 768 mmHg 51%
    14:00 +24°C° 0 mm 3 mps 767 mmHg 54%
    15:00 +22°C° 0 mm 3 mps 767 mmHg 57%
    16:00 +21°C° 0 mm 3 mps 767 mmHg 63%
    17:00 +20°C° 0 mm 3 mps 767 mmHg 69%
    18:00 +19°C° 0 mm 3 mps 767 mmHg 75%
    19:00 +17°C° 0 mm 3 mps 767 mmHg 81%
    20:00 +16°C° 0 mm 3 mps 768 mmHg 88%
    21:00 +13°C° 0 mm 3 mps 768 mmHg 95%
    22:00 +13°C° 0 mm 3 mps 768 mmHg 95%
    23:00 +13°C° 0 mm 3 mps 767 mmHg 95%
    Show more